Torna al catalogo

CZ-6A DEB

AttivoPO
NORAD 60826·DEBRIS·🇨🇳 China

Lanciato Aug 6, 2024 da Taiyuan Satellite Launch Center

Loading…

Prossimi Passaggi (prossime 24 ore)

TLE

AggiornatoSource: Space-Track

Epoca: Sep 14, 2026, 06:51 UTC

1 60826U 24140HD  26257.28563057  .00000782  00000-0  31898-3 0  9990
2 60826  88.9692 261.4108 0029038 187.9112 172.1628 14.26238559108538

Traccia CZ-6A DEB in tempo reale con AllMySat

Download on the App Store